Regional Weather Roundup
Issued by NWS

Home | Current Version | Previous Version | Graphics & Text | Print | Product List | Glossary On
Versions: 1 2 3 4 5 6 7 8 9 10 11 12 13 14 15 16 17 18 19 20 21 22 23 24 25 26 27 28 29 30 31 32 33 34 35 36 37 38 39 40 41 42 43 44 45 46 47 48 49 50
000
ASUS43 KOAX 242310
RWRNE

WEATHER ROUNDUP FOR NEBRASKA
NATIONAL WEATHER SERVICE OMAHA NE
600 PM CDT MON APR 24 2017

NOTES: SATELLITE DATA IS BEING USED TO AUGMENT CLOUD COVER ABOVE
       12000 FEET.
       "FAIR" INDICATES FEW OR NO CLOUDS BELOW 12,000 FEET WITH NO
       SIGNIFICANT WEATHER AND/OR OBSTRUCTIONS TO VISIBILITY.

  * THESE STATIONS DO NOT REPORT WEATHER SUCH AS RAIN...SNOW OR FOG.

NEZ001>004-019>022-054>056-250000-
NEBRASKA PANHANDLE

CITY           SKY/WX    TMP DP  RH WIND       PRES   REMARKS
SCOTTSBLUFF    CLOUDY    66  29  24 VRB6      29.56R
ALLIANCE       PTSUNNY   63  35  35 N9        29.55S
CHADRON        CLOUDY    63  41  44 NE12      29.55R
KIMBALL        CLOUDY    60  35  37 NW18G25   29.61S
SIDNEY         SUNNY     64  34  32 N8        29.58F
$$

NEZ057>060-069>072-079>082-250000-
SOUTHWEST NEBRASKA

CITY           SKY/WX    TMP DP  RH WIND       PRES   REMARKS
NORTH PLATTE   MOSUNNY   71  38  29 N16       29.53R
IMPERIAL       MOSUNNY   70  35  27 NE12      29.54S
LEXINGTON      CLOUDY    70  42  37 NE12G20   29.54R
MCCOOK         SUNNY     76  42  29 NE10G21   29.51R
OGALLALA       CLOUDY    71  29  21 N7        29.55S
$$

NEZ005>010-023>029-035>040-094-250000-
NORTH CENTRAL NEBRASKA

CITY           SKY/WX    TMP DP  RH WIND       PRES   REMARKS
VALENTINE      SUNNY     59  39  47 N10       29.59S
AINSWORTH      SUNNY     56  42  58 N14G21    29.58S
BROKEN BOW     MOSUNNY   66  41  40 N15       29.55R
O`NEILL        CLOUDY    60  41  49 NW12      29.57R
ORD            SUNNY     65  44  46 N16       29.52R
THEDFORD       MOSUNNY   64  41  43 N10G21    29.58R
$$

NEZ041-046>049-061>064-073>077-083>087-250000-
SOUTH CENTRAL NEBRASKA

CITY           SKY/WX    TMP DP  RH WIND       PRES   REMARKS
GRAND ISLAND   SUNNY     72  41  32 NW13      29.50R
AURORA         CLOUDY    75  40  28 SW8       29.48S
HASTINGS       SUNNY     74  40  29 NW10      29.50R
HEBRON         CLOUDY    76  45  32 S14G21    29.47F
HOLDREGE       MOSUNNY   73  41  32 N6        29.52R
KEARNEY *      MOSUNNY   72  41  33 NW9       29.52R
YORK           MOSUNNY   75  41  29 SW7       29.48S
$$

NEZ011>018-030>034-042>045-250000-
NORTHEAST NEBRASKA

CITY           SKY/WX    TMP DP  RH WIND       PRES   REMARKS
NORFOLK        SUNNY     71  40  32 W10       29.48F
ALBION         SUNNY     69  43  38 SW7       29.51S
BLAIR          PTSUNNY   74  42  32 S20G26    29.51S
FREMONT        PTSUNNY   73  43  34 S16G24    29.51S
TEKAMAH        CLOUDY    73  42  32 S21       29.50S
WAYNE          SUNNY     69  45  41 SW9G16    29.49F
$$

NEZ050>053-065>068-078-088>093-250000-
SOUTHEAST NEBRASKA

CITY           SKY/WX    TMP DP  RH WIND       PRES   REMARKS
LINCOLN        CLOUDY    74  47  38 S17       29.50F
OMAHA EPPLEY   PTSUNNY   75  41  29 S24G30    29.51F
BEATRICE       CLOUDY    74  48  40 S15G23    29.51S
FALLS CITY     SUNNY     72  41  32 S21G30    29.56F
NEBRASKA CITY  PTSUNNY   73  32  22 S22G30    29.54F
PLATTSMOUTH    MOSUNNY   74  33  22 S16G29    29.53F
$$

NEZ044-045-051>053-067-250000-
OMAHA AREA

CITY           SKY/WX    TMP DP  RH WIND       PRES   REMARKS
OMAHA EPPLEY   PTSUNNY   75  41  29 S24G30    29.51F
BLAIR          PTSUNNY   74  42  32 S20G26    29.51S
FREMONT        PTSUNNY   73  43  34 S16G24    29.51S
MILLARD        CLOUDY    76  46  34 S12G22    29.51S
OFFUTT AFB     PTSUNNY   75  42  30 S18G26    29.51F
PLATTSMOUTH    MOSUNNY   74  33  22 S16G29    29.53F
WAHOO          MOCLDY    74  41  30 S21       29.50F
$$




USA.gov is the U.S. government's official web portal to all federal, state and local government web resources and services.